Weather in Malkovo

Russia / Tyumen Oblast     57°07′28″N   65°51′58″E
temp.,
°C
wind,
m/s
gust,
m/s
humid.,
%
clouds,
%
prec.,
mm/h
press.,
hPa
HPBL,
m
24 september, fri
fri2423:00+4wsw22785 0.0 103020
02:00+3wsw238343 0.0 102956
05:00+2wsw248730 0.0 103080
08:00+4wsw2777100 0.0 1029188
11:00+10wsw355118 0.0 1029718
14:00+13wsw3443100 0.0 10281163
17:00+13wsw24486 0.0 1027219
20:00+7sw226655 0.0 102719
25 september, sat
sat2523:00+6wsw2270100 0.0 102732
02:00+5wsw22705 0.0 102635
05:00+4wsw22705 0.0 102621
08:00+6wsw12640 0.0 102674
11:00+12nnw11445 0.0 1025489
14:00+14ne22385 0.0 10241007
17:00+13e35524 0.0 1024670
20:00+8e411731 0.0 1025402
26 september, sun
sun2623:00+5e411764 0.0 1026431
02:00+3e3108244 0.0 1026364
05:00+1e41074100 0.0 1027329
08:00+2e4116995 0.0 1028404
11:00+6ese585018 0.0 1027898
14:00+9e573764 0.0 10271206
17:00+8e5841100 0.0 10261240
20:00+5e4125963 0.0 1027578
27 september, mon
mon2723:00+3e4127342 0.0 1027498
02:00+1e413775 0.0 1027457
05:000ene4138159 0.0 1028539
08:00+1ene5137360 0.0 1028764
11:00+6e6105385 0.0 10271305
14:00+9e694496 0.0 10261752
17:00+7ene695699 0.0 10261553
20:00+5e61054100 0.0 10271451
28 september, tue
tue2823:00+5ene5956100 0.0 10261474
02:00+5ene4859100 0.0 1025900
05:00+4ne4962100 0.0 1025638
08:00+4ne4859100 0.0 10251135
11:00+6ne5753100 0.0 10241280
14:00+7ne4653100 0.1 10221446
17:00+6ene366197 0.2 10221200
20:00+3n378678 0.1 1022258